Zurück zum Katalog

SHIYAN 32-02

AktivWissenschaftVLEO
NORAD 66378·PAYLOAD·🇨🇳 China

Gestartet Nov 8, 2025 von Yellow Sea Launch Area

Loading…

Nächste Überflüge (nächste 24 Stunden)

TLE

AktuellSource: Space-Track

Epoche: Sep 14, 2026, 14:33 UTC

1 66378U 25255C   26257.60693038  .00012752  00000-0  30493-3 0  9995
2 66378  52.9927 309.9975 0016595 135.0183 225.2168 15.41744901 47750

Verfolge SHIYAN 32-02 in Echtzeit mit AllMySat

Download on the App Store